User: anonymous   Login
Location: Newark
(46.9000°N, 28.3500°E)
Time: 08:08:15
(UTC+00:00)
Language:

Altair - Orbit

View from above orbital plane
View from above orbital plane
View from above satellite
View from above satellite

Ground track
Ground track

The orbit data is extracted from the following two-line orbital elements,

1    50U 60009B   19233.39078802 -.00000109 +00000-0 -22102-3 0  9997
2    50 047.2333 335.6657 0113956 148.6947 212.0690 12.20109701633463
Epoch (UTC): 21 August 2019 09:22:44
Eccentricity: 0.0113956
inclination: 47.2333°
perigee height: 1501 km
apogee height: 1683 km
right ascension of ascending node: 335.6657°
argument of perigee: 148.6947°
revolutions per day: 12.20109701
mean anomaly at epoch: 212.0690°
orbit number at epoch: 63346

The dashed part of the orbit path shows where the satellite is in the earth's shadow,  

DLR